Regional Weather Roundup
Issued by NWS

Home | Current Version | Previous Version | Graphics & Text | Print | Product List | Glossary On
Versions: 1 2 3 4 5 6 7 8 9 10 11 12 13 14 15 16 17 18 19 20 21 22 23 24 25 26 27 28 29 30 31 32 33 34 35 36 37 38 39 40 41 42 43 44 45 46 47 48 49 50
000
ASUS43 KLMK 291910
RWRKY
KENTUCKY REGIONAL WEATHER ROUNDUP
NATIONAL WEATHER SERVICE LOUISVILLE KY
300 PM EDT FRI AUG 29 2014

NOTE "FAIR" INDICATES FEW OR NO CLOUDS BELOW 12,000 FEET
WITH NO SIGNIFICANT WEATHER AND/OR OBSTRUCTIONS TO VISIBILITY.

KYZ001>023-026-027-061>063-070>075-292000-
WESTERN AND SOUTH CENTRAL KENTUCKY

CITY           SKY/WX    TMP DP  RH WIND       PRES   REMARKS
PADUCAH        PTSUNNY   91  67  44 SW6       29.96F HX  94
HENDERSON      SUNNY     90  64  43 S6        29.96F HX  91
OWENSBORO        N/A    N/A N/A N/A MISG        N/A
HOPKINSVILLE   MOSUNNY   90  65  43 S9        29.99F HX  92
BOWLING GREEN  SUNNY     90  58  33 SW12      30.01F
GLASGOW        SUNNY     90  58  34 S6        30.03F
$$

KYZ024-025-028>034-038-045-046-053-292000-
NORTH CENTRAL KENTUCKY

CITY           SKY/WX    TMP DP  RH WIND       PRES   REMARKS
LOUISVILLE/SDF MOSUNNY   91  69  48 S12       30.00F HX  96
LOUISVILLE/LOU MOSUNNY   90  68  48 S9        30.01F HX  94
FORT KNOX      MOSUNNY   90  70  51 S8        30.01F HX  95
$$

KYZ035>037-039>044-047>052-055>060-089>105-292000-
NORTHEAST KENTUCKY

CITY           SKY/WX    TMP DP  RH WIND       PRES   REMARKS
LEXINGTON      MOSUNNY   89  71  55 W6        30.05F HX  95
COVINGTON      MOSUNNY   87  65  47 E7        30.04F
FRANKFORT      MOSUNNY   87  70  56 W7        30.03F HX  92
$$

KYZ054-064>069-076>088-106>120-292000-
SOUTHEAST KENTUCKY

CITY           SKY/WX    TMP DP  RH WIND       PRES   REMARKS
JACKSON        MOSUNNY   88  71  57 CALM      30.09F HX  94
LONDON         MOSUNNY   90  66  45 SW6       30.08F HX  92
SOMERSET       PTSUNNY   88  64  45 NW6       30.07F
MIDDLESBORO    SUNNY     90  68  47 S8        30.08F HX  93
MONTICELLO     CLEAR     91  67  45 SW7       30.08S HX  94
$$



USA.gov is the U.S. government's official web portal to all federal, state and local government web resources and services.